• Join FlightAware (Why Join?)
  • Login
  • US Flag 
06:55AM EST


 

Airport Tracker/Info


-or-


 

Live Flight TrackerFlight Track Log ✈ N724AE ✈ 29-Apr-2013 ✈ KSPS - KDFW

Flight Track Log - Related Links

Times and Time Zones

All times are in EDT time to prevent confusion due to time zone crossing. See the N724AE flight status page for this flight to view local times or setup timezone preferences in your user account.

Time Position Orientation Groundspeed Altitude Reporting Facility
EDT Latitude Longitude Course Direction KTS MPH feet Rate Location/Type
03:33PM 33.9475 -98.4950 162° South 161 185 2,000  Level Fort Worth Center
03:34PM 33.9142 -98.4822 162° South 176 203 2,500 1,175 Climbing Fort Worth Center
03:34PM 33.8789 -98.4417 136° Southeast 199 229 3,900 2,452 Climbing Fort Worth Center
03:35PM 33.8503 -98.3739 117° Southeast 226 260 7,200 2,870 Climbing Fort Worth Center
03:36PM 33.8422 -98.3464 109° East 234 269 8,300 2,176 Climbing Fort Worth Center
03:37PM 33.7928 -98.2633 126° Southeast 266 306 10,500 1,650 Climbing Fort Worth Center
03:38PM 33.7389 -98.1778 127° Southeast 298 343 11,600 1,100 Climbing Fort Worth Center
03:39PM 33.6789 -98.0825 127° Southeast 332 382 12,700 950 Climbing Fort Worth Center
03:40PM 33.6128 -97.9872 130° Southeast 361 415 13,500 650 Climbing Fort Worth Center
03:41PM 33.5464 -97.8869 128° Southeast 377 434 14,000 -200 Climbing Fort Worth Center
03:42PM 33.4861 -97.7944 128° Southeast 385 443 13,100 -1,350 Descending Fort Worth Center
03:43PM 33.4156 -97.6947 130° Southeast 373 429 11,300 -1,350 Descending Fort Worth Center
03:44PM 33.3675 -97.6250 130° Southeast 326 375 10,400 -1,250 Descending Fort Worth Center
03:45PM 33.3114 -97.5575 135° Southeast 289 333 8,800 -1,550 Descending Fort Worth Center
03:46PM 33.2822 -97.4681 111° Southeast 270 311 7,300 -1,200 Descending Fort Worth Center
03:47PM 33.2572 -97.3936 112° Southeast 259 298 6,400 -1,000 Descending Fort Worth Center
03:48PM 33.2258 -97.3042 113° Southeast 254 292 5,300 -700 Descending Fort Worth Center
03:49PM 33.1839 -97.2497 133° Southeast 254 292 5,000 -400 Descending Fort Worth Center
03:50PM 33.1339 -97.1803 131° Southeast 255 293 4,500 -600 Descending Fort Worth Center
03:51PM 33.0897 -97.1258 134° Southeast 255 293 3,800 -828 Descending Fort Worth Center
03:52PM 33.0333 -97.0667 139° Southeast 238 274 2,900 -1,041 Descending Dallas / Fort Worth TRACON
03:53PM 32.9667 -97.0500 168° South 168 193 1,700 -912 Descending Dallas / Fort Worth TRACON
03:54PM 32.9333 -97.0500 180° South 135 155 1,000 -700 Descending Dallas / Fort Worth TRACON